Aeroporto :
LOGIN :

Iscrizione | Disclaimer

   EN    FR    IT 

 










Sommario :    VFR   VFR Marginale   IFR   IFR Intensivo   IFR Molto Intensivo
Visibilità : 
Base nubi : 
>= 8 km
>= 3000ft
5 / 8 km
1000 / 3000 ft
1500m / 5 km
500 / 1000 ft
800 / 1500m
200 / 500 ft
< 800m
< 200 ft
Simboli :   Temporali  Nebbia  Neve Forte  Precipitazioni Forti  Vento > 20 kt
SIGMETs :   Varie  Temporali  Ghiacco  Turbolenza  Onda orograficha  Ceneri Vulcaniche






- Altitudine del aeroporto : 340 ft
- Codice IATA : BZI


LTBF - Balikesir

ULTIMO METAR :
  • 280650Z VRB02KT 9999 SCT035 BKN100 16/11 Q1018 NOSIG

METARs OBSOLETI :
  • 280550Z 34004KT 300V010 9999 SCT033 BKN100 14/10 Q1018 NOSIG
  • 280450Z VRB02KT 9999 SCT035 BKN100 13/10 Q1018 NOSIG

TAF TAF LTBF
Valido dal 28 a 06 ore il 28 a 15 ore UTC


280440Z 2806/2815 01008KT 9999 SCT035 BKN100
TEMPO 2808/2812 -SHRA



MetMap, La meteo Aeronautica in un colpo d'occhio ! - Copyright ORBIFLY Dicembre 2007 - Disclaimer

ORBIFLY MET'MAP TEAM :

Programmazione e sviluppo : Alexandra Zaïnal
Concezione : Baudouin d'Aumeries
Aiuto per la programmazione : Marc-Olivier Méhu
Supporto tecnico e logistico : Manuel Goepfert
Aiuto per la traduzione : Arnaldo La Scala

Contatto : metmap@orbifly.com




FONTI E CREDITI :

   NOAA